Weather History for Key West, FL

Change the Weather History Date:

Monday, August 6, 2012

  Actual Average Record
Temperature  
Mean Temperature 82 °F 85 °F  
Max Temperature 87 °F 90 °F 94 °F (1990)
Min Temperature 77 °F 80 °F 68 °F (1913)
Degree Days  
Heating Degree Days 0 0  
Month to date heating degree days 0 0  
Since 1 June heating degree days 0 0  
Since 1 July heating degree days 0 0  
Cooling Degree Days 17 20  
Month to date cooling degree days 118 120  
Year to date cooling degree days 2867 2705  
Since 1 June cooling degree days 1177 1275  
Growing Degree Days 32 (Base 50)    
Moisture  
Dew Point 76 °F    
Average Humidity 83    
Maximum Humidity 91    
Minimum Humidity 74    
Precipitation  
Precipitation 0.79 in 0.15 in 2.40 in (2000)
Month to date precipitation 0.98 0.88  
Year to date precipitation 35.08 19.17  
Snow  
Snow 0.00 in - - ()
Month to date snowfall 0.0  
Since 1 June snowfall 0.0  
Since 1 July snowfall 0.0  
Snow Depth 0.00 in    
Sea Level Pressure  
Sea Level Pressure 30.02 in    
Wind  
Wind Speed 12 mph (ESE)    
Max Wind Speed 30 mph    
Max Gust Speed 35 mph    
Visibility 9 miles    
Events Fog , Rain    
T = Trace of Precipitation, MM = Missing Value Source: NWS Daily Summary

Daily Weather History Graph

Daily Weather History Graph

Search for Another Location

Airport:

Trip Planner

Search our weather history database for the weather conditions in past years. The results will help you decide how hot, cold, wet, or windy it might be!

Date:

Astronomy

Aug. 06, 2012 Rise Set
Actual Time 6:57 AM EDT 8:07 PM EDT
Civil Twilight 6:33 AM EDT 8:31 PM EDT
Nautical Twilight 6:05 AM EDT 9:00 PM EDT
Astronomical Twilight 5:35 AM EDT 9:29 PM EDT
Moon 10:57 PM EDT (8/6) 11:06 AM EDT (8/6)
Length of Visible Light 13h 57m
Length of Day
13h 09m
Waning Gibbous, 78% of the Moon is Illuminated
Aug 6
Waning Gibbous
Aug 9
Last Quarter
Aug 17
New
Aug 24
First Quarter
Aug 31
Full

Hourly Weather History & Observations

Time (EDT) Temp. Heat Index Dew Point Humidity Pressure Visibility Wind Dir Wind Speed Gust Speed Precip Events Conditions
12:53 AM 82.0 °F 88.6 °F 75.0 °F 79% 30.04 in 10.0 mi East 13.8 mph - 0.00 in   Mostly Cloudy
1:53 AM 82.0 °F 88.6 °F 75.0 °F 79% 30.02 in 10.0 mi East 6.9 mph - N/A   Clear
2:53 AM 82.9 °F 90.2 °F 75.0 °F 77% 30.01 in 10.0 mi East 12.7 mph - N/A   Scattered Clouds
3:14 AM 82.4 °F 89.5 °F 75.2 °F 79% 30.01 in 10.0 mi ESE 26.5 mph 33.4 mph N/A   Mostly Cloudy
3:25 AM 78.8 °F - 75.2 °F 89% 30.01 in 10.0 mi ESE 20.7 mph 28.8 mph 0.00 in Rain Light Rain
3:53 AM 81.0 °F 86.7 °F 75.0 °F 82% 29.99 in 10.0 mi ESE 12.7 mph - 0.00 in   Partly Cloudy
4:53 AM 82.0 °F 88.6 °F 75.0 °F 79% 29.99 in 10.0 mi ESE 13.8 mph - N/A   Partly Cloudy
5:53 AM 82.0 °F 88.6 °F 75.0 °F 79% 30.00 in 10.0 mi ESE 16.1 mph - N/A   Partly Cloudy
6:53 AM 82.0 °F 89.4 °F 75.9 °F 82% 30.00 in 10.0 mi ESE 13.8 mph - N/A   Clear
7:53 AM 82.9 °F 90.8 °F 75.9 °F 79% 30.00 in 10.0 mi ESE 12.7 mph - N/A   Clear
8:53 AM 82.9 °F 90.8 °F 75.9 °F 79% 30.01 in 10.0 mi ESE 12.7 mph - N/A   Scattered Clouds
9:53 AM 84.9 °F 95.3 °F 77.0 °F 77% 30.02 in 10.0 mi ESE 12.7 mph - N/A   Scattered Clouds
10:53 AM 86.0 °F 96.9 °F 77.0 °F 74% 30.03 in 10.0 mi ESE 10.4 mph - N/A   Partly Cloudy
11:15 AM 82.4 °F 89.5 °F 75.2 °F 79% 30.04 in 10.0 mi South 13.8 mph 26.5 mph N/A   Mostly Cloudy
11:21 AM 80.6 °F 86.2 °F 75.2 °F 84% 30.06 in 1.5 mi South 25.3 mph 34.5 mph 0.00 in Rain Light Rain
11:23 AM 78.8 °F - 75.2 °F 89% 30.06 in 1.0 mi South 18.4 mph 34.5 mph 0.09 in Rain Heavy Rain
11:28 AM 78.8 °F - 75.2 °F 89% 30.06 in 0.5 mi SSW 17.3 mph - 0.37 in Fog , Rain Heavy Rain
11:32 AM 78.8 °F - 75.2 °F 89% 30.06 in 1.0 mi SSW 12.7 mph 23.0 mph 0.46 in Rain Heavy Rain
11:39 AM 77.0 °F - 73.4 °F 89% 30.06 in 1.2 mi WSW 11.5 mph - 0.70 in Rain Heavy Rain
11:45 AM 78.8 °F - 73.4 °F 83% 30.05 in 3.0 mi SW 6.9 mph - N/A Rain Light Rain
11:53 AM 79.0 °F - 73.9 °F 84% 30.04 in 10.0 mi SSW 4.6 mph - 0.73 in Rain Light Rain
12:01 PM 80.6 °F 86.2 °F 75.2 °F 84% 30.05 in 10.0 mi Calm Calm - 0.00 in   Scattered Clouds
12:24 PM 78.8 °F - 73.4 °F 83% 30.05 in 10.0 mi East 12.7 mph 23.0 mph 0.00 in   Mostly Cloudy
12:53 PM 78.1 °F - 75.9 °F 93% 30.06 in 10.0 mi East 8.1 mph - 0.01 in Rain Light Rain
1:53 PM 80.1 °F 85.8 °F 77.0 °F 90% 30.04 in 10.0 mi ESE 9.2 mph - 0.02 in Rain Light Rain
2:53 PM 80.1 °F 85.8 °F 77.0 °F 90% 30.02 in 10.0 mi ESE 13.8 mph - 0.03 in Rain Light Rain
3:53 PM 81.0 °F 86.7 °F 75.0 °F 82% 30.01 in 10.0 mi ESE 12.7 mph - 0.00 in   Clear
4:53 PM 82.0 °F 90.2 °F 77.0 °F 85% 29.98 in 10.0 mi ESE 12.7 mph - N/A   Partly Cloudy
5:53 PM 82.9 °F 91.8 °F 77.0 °F 82% 29.97 in 10.0 mi ESE 15.0 mph - N/A   Scattered Clouds
6:53 PM 82.9 °F 91.8 °F 77.0 °F 82% 29.97 in 10.0 mi ESE 12.7 mph - N/A   Clear
7:53 PM 82.9 °F 89.4 °F 73.9 °F 74% 30.00 in 10.0 mi East 11.5 mph - N/A   Clear
8:53 PM 82.9 °F 90.8 °F 75.9 °F 79% 30.02 in 10.0 mi East 15.0 mph - N/A   Partly Cloudy
9:53 PM 82.9 °F 91.8 °F 77.0 °F 82% 30.02 in 10.0 mi East 15.0 mph - 0.00 in   Mostly Cloudy
10:11 PM 82.4 °F 90.9 °F 77.0 °F 84% 30.02 in 10.0 mi East 13.8 mph - N/A   Mostly Cloudy
10:37 PM 82.4 °F 90.9 °F 77.0 °F 84% 30.02 in 10.0 mi ESE 15.0 mph - N/A   Scattered Clouds
10:53 PM 82.9 °F 91.8 °F 77.0 °F 82% 30.03 in 10.0 mi ESE 12.7 mph - N/A   Partly Cloudy
11:53 PM 84.0 °F 92.6 °F 75.9 °F 76% 30.02 in 10.0 mi East 15.0 mph - N/A   Scattered Clouds